When you browse on this site, cookies collect data to enhance your experience and personalize the content and advertising you see.
Visit our Privacy Policy to learn more. By continuing to use the site, you agree to this use of cookies and data.
  • In Latvia
  • List of Countries
  • For 7 days
  • Water Temperature
  • Weather Map
  • Weather Widgets
  • user-avatar
    Login

    Hourly Weather Staryy Tukshum

    Today, 23 August, Friday

    Time Temperature Precipitation Wind Pressure Humidity
    00:00 +18°C° 0 mm 0 mps 755 mmHg 84%
    01:00 +18°C° 0 mm 0 mps 755 mmHg 85%
    02:00 +19°C° 0 mm 1 mps 755 mmHg 85%
    03:00 +19°C° 0 mm 1 mps 756 mmHg 86%
    04:00 +19°C° 0 mm 1 mps 756 mmHg 85%
    05:00 +20°C° 0 mm 1 mps 756 mmHg 85%
    06:00 +20°C° 0 mm 1 mps 756 mmHg 84%
    07:00 +21°C° 0 mm 2 mps 756 mmHg 81%
    08:00 +22°C° 0 mm 3 mps 756 mmHg 78%
    09:00 +25°C° 0 mm 3 mps 757 mmHg 75%
    10:00 +23°C° 0 mm 4 mps 757 mmHg 75%
    11:00 +23°C° 0 mm 4 mps 756 mmHg 75%
    12:00 +23°C° 0 mm 5 mps 756 mmHg 75%
    13:00 +23°C° 0 mm 5 mps 757 mmHg 70%
    14:00 +23°C° 0 mm 5 mps 757 mmHg 65%
    15:00 +25°C° 0 mm 5 mps 757 mmHg 61%
    16:00 +22°C° 0 mm 5 mps 757 mmHg 63%
    17:00 +21°C° 0 mm 4 mps 757 mmHg 66%
    18:00 +20°C° 0 mm 4 mps 757 mmHg 68%
    19:00 +19°C° 0 mm 3 mps 757 mmHg 71%
    20:00 +19°C° 0 mm 3 mps 758 mmHg 73%
    21:00 +18°C° 0 mm 3 mps 758 mmHg 76%
    22:00 +17°C° 0 mm 3 mps 758 mmHg 78%
    23:00 +16°C° 0 mm 3 mps 758 mmHg 79%

    Tomorrow, 24 August, Saturday

    Time Temperature Precipitation Wind Pressure Humidity
    00:00 +16°C° 0 mm 3 mps 758 mmHg 81%
    01:00 +14°C° 0 mm 3 mps 758 mmHg 83%
    02:00 +15°C° 0 mm 2 mps 758 mmHg 84%
    03:00 +15°C° 0 mm 2 mps 758 mmHg 85%
    04:00 +15°C° 0 mm 2 mps 758 mmHg 85%
    05:00 +15°C° 0 mm 2 mps 758 mmHg 85%
    06:00 +15°C° 0 mm 2 mps 758 mmHg 85%
    07:00 +17°C° 0 mm 2 mps 758 mmHg 78%
    08:00 +18°C° 0 mm 3 mps 758 mmHg 71%
    09:00 +20°C° 0 mm 3 mps 758 mmHg 64%
    10:00 +21°C° 0 mm 3 mps 758 mmHg 58%
    11:00 +22°C° 0 mm 3 mps 758 mmHg 53%
    12:00 +24°C° 0 mm 3 mps 757 mmHg 47%
    13:00 +24°C° 0 mm 3 mps 757 mmHg 47%
    14:00 +24°C° 0 mm 2 mps 757 mmHg 46%
    15:00 +24°C° 0 mm 2 mps 757 mmHg 46%
    16:00 +23°C° 0 mm 2 mps 756 mmHg 51%
    17:00 +22°C° 0 mm 1 mps 756 mmHg 56%
    18:00 +21°C° 0 mm 1 mps 756 mmHg 62%
    19:00 +20°C° 0 mm 1 mps 756 mmHg 63%
    20:00 +19°C° 0 mm 1 mps 756 mmHg 64%
    21:00 +16°C° 0 mm 1 mps 756 mmHg 65%
    22:00 +16°C° 0 mm 1 mps 756 mmHg 67%
    23:00 +16°C° 0 mm 1 mps 756 mmHg 69%

    Day after tomorrow, 25 August, Sunday

    Time Temperature Precipitation Wind Pressure Humidity
    00:00 +15°C° 0 mm 2 mps 755 mmHg 71%
    01:00 +15°C° 0 mm 2 mps 755 mmHg 73%
    02:00 +15°C° 0 mm 2 mps 755 mmHg 74%
    03:00 +14°C° 0 mm 2 mps 755 mmHg 75%
    04:00 +15°C° 0 mm 2 mps 754 mmHg 75%
    05:00 +14°C° 0 mm 3 mps 754 mmHg 76%
    06:00 +14°C° 0 mm 3 mps 754 mmHg 76%
    07:00 +17°C° 0 mm 3 mps 754 mmHg 72%
    08:00 +19°C° 0 mm 4 mps 754 mmHg 69%
    09:00 +21°C° 0 mm 4 mps 754 mmHg 65%
    10:00 +21°C° 0 mm 4 mps 754 mmHg 63%
    11:00 +22°C° 0 mm 5 mps 754 mmHg 61%
    12:00 +23°C° 0 mm 5 mps 753 mmHg 60%
    13:00 +23°C° 0 mm 5 mps 754 mmHg 57%
    14:00 +23°C° 0 mm 6 mps 754 mmHg 54%
    15:00 +23°C° 0 mm 6 mps 754 mmHg 52%
    16:00 +21°C° 0 mm 5 mps 754 mmHg 57%
    17:00 +20°C° 0 mm 5 mps 754 mmHg 63%
    18:00 +19°C° 0 mm 4 mps 754 mmHg 68%
    19:00 +18°C° 0 mm 4 mps 755 mmHg 73%
    20:00 +15°C° 0 mm 4 mps 755 mmHg 77%
    21:00 +14°C° 0 mm 4 mps 755 mmHg 81%
    22:00 +13°C° 0 mm 4 mps 756 mmHg 83%
    23:00 +12°C° 0 mm 3 mps 756 mmHg 84%

    26 August, Monday

    Time Temperature Precipitation Wind Pressure Humidity
    00:00 +12°C° 0 mm 3 mps 756 mmHg 86%
    01:00 +11°C° 0 mm 3 mps 756 mmHg 89%
    02:00 +11°C° 0 mm 3 mps 757 mmHg 92%
    03:00 +11°C° 0 mm 3 mps 757 mmHg 95%
    04:00 +11°C° 0 mm 3 mps 757 mmHg 94%
    05:00 +11°C° 0 mm 3 mps 757 mmHg 93%
    06:00 +12°C° 0 mm 3 mps 758 mmHg 92%
    07:00 +13°C° 0 mm 3 mps 758 mmHg 85%
    08:00 +14°C° 0 mm 4 mps 758 mmHg 78%
    09:00 +17°C° 0 mm 4 mps 758 mmHg 71%
    10:00 +18°C° 0 mm 4 mps 758 mmHg 66%
    11:00 +19°C° 0 mm 4 mps 759 mmHg 61%
    12:00 +19°C° 0 mm 4 mps 759 mmHg 57%
    13:00 +20°C° 0 mm 4 mps 759 mmHg 55%
    14:00 +20°C° 0 mm 4 mps 758 mmHg 54%
    15:00 +20°C° 0 mm 4 mps 758 mmHg 53%
    16:00 +19°C° 0 mm 3 mps 758 mmHg 58%
    17:00 +18°C° 0 mm 3 mps 758 mmHg 63%
    18:00 +17°C° 0 mm 2 mps 758 mmHg 67%
    19:00 +16°C° 0 mm 1 mps 758 mmHg 71%
    20:00 +14°C° 0 mm 1 mps 758 mmHg 74%
    21:00 +12°C° 0 mm 0 mps 758 mmHg 77%
    22:00 +11°C° 0 mm 0 mps 758 mmHg 79%
    23:00 +11°C° 0 mm 0 mps 758 mmHg 81%

    27 August, Tuesday

    Time Temperature Precipitation Wind Pressure Humidity
    00:00 +11°C° 0 mm 0 mps 758 mmHg 83%
    01:00 +11°C° 0 mm 1 mps 758 mmHg 84%
    02:00 +11°C° 0 mm 1 mps 757 mmHg 85%
    03:00 +10°C° 0 mm 2 mps 757 mmHg 86%
    04:00 +10°C° 0 mm 2 mps 757 mmHg 85%
    05:00 +12°C° 0 mm 2 mps 756 mmHg 84%
    06:00 +12°C° 0 mm 2 mps 756 mmHg 83%
    07:00 +13°C° 0 mm 3 mps 756 mmHg 77%
    08:00 +15°C° 0 mm 4 mps 755 mmHg 72%
    09:00 +18°C° 0 mm 4 mps 755 mmHg 66%
    10:00 +17°C° 0 mm 5 mps 754 mmHg 63%
    11:00 +19°C° 0 mm 5 mps 753 mmHg 59%
    12:00 +20°C° 0 mm 5 mps 753 mmHg 56%
    13:00 +20°C° 0 mm 5 mps 752 mmHg 56%
    14:00 +21°C° 0 mm 6 mps 751 mmHg 56%
    15:00 +21°C° 0 mm 6 mps 750 mmHg 56%
    16:00 +20°C° 0.1 mm 5 mps 750 mmHg 61%
    17:00 +19°C° 0.1 mm 5 mps 749 mmHg 66%
    18:00 +17°C° 0.1 mm 5 mps 749 mmHg 72%
    19:00 +16°C° 0.5 mm 5 mps 748 mmHg 78%
    20:00 +15°C° 0.5 mm 4 mps 748 mmHg 84%
    21:00 +14°C° 0.5 mm 4 mps 748 mmHg 91%
    22:00 +14°C° 0.4 mm 4 mps 747 mmHg 92%
    23:00 +14°C° 0.4 mm 4 mps 747 mmHg 93%

    28 August, Wednesday

    Time Temperature Precipitation Wind Pressure Humidity
    00:00 +13°C° 0.4 mm 4 mps 746 mmHg 94%
    01:00 +13°C° 0.1 mm 4 mps 746 mmHg 94%
    02:00 +12°C° 0.1 mm 4 mps 745 mmHg 95%
    03:00 +12°C° 0.1 mm 4 mps 744 mmHg 96%
    04:00 +10°C° 0.3 mm 5 mps 744 mmHg 94%
    05:00 +10°C° 0.3 mm 5 mps 744 mmHg 92%
    06:00 +10°C° 0.3 mm 6 mps 744 mmHg 91%
    07:00 +10°C° 0 mm 7 mps 744 mmHg 88%
    08:00 +9°C° 0 mm 7 mps 744 mmHg 85%
    09:00 +9°C° 0 mm 8 mps 744 mmHg 82%
    10:00 +7°C° 0.2 mm 8 mps 744 mmHg 83%
    11:00 +7°C° 0.2 mm 8 mps 744 mmHg 84%
    12:00 +6°C° 0.2 mm 9 mps 745 mmHg 85%
    13:00 +6°C° 0.3 mm 9 mps 745 mmHg 82%
    14:00 +6°C° 0.3 mm 9 mps 745 mmHg 79%
    15:00 +6°C° 0.3 mm 9 mps 745 mmHg 76%
    16:00 +6°C° 0.1 mm 8 mps 745 mmHg 75%
    17:00 +6°C° 0.1 mm 8 mps 745 mmHg 73%
    18:00 +6°C° 0.1 mm 8 mps 745 mmHg 72%
    19:00 +6°C° 0 mm 8 mps 745 mmHg 74%
    20:00 +6°C° 0 mm 8 mps 745 mmHg 76%
    21:00 +6°C° 0 mm 8 mps 745 mmHg 78%
    22:00 +6°C° 0 mm 8 mps 745 mmHg 79%
    23:00 +6°C° 0 mm 8 mps 744 mmHg 80%
    Show more